,,,PA_Meas_PMT16A,,PR_Meas_QMR101_102,,RH_Meas_QMH101,,SR_Meas_QMS101,,TA_Meas_QMH101,,GenWind,,GenWind,
date,time,status,PA,status,PR,status,RH,status,SR,status,TA,status,DirAvg,status,SpdAvg,
2010-06-25, 00:00:04,VALID,1002.91,VALID,0,VALID,98.9008,VALID,0,VALID,24.5388,VALID,8,VALID,0.573438,
2010-06-25, 00:01:04,VALID,1002.93,VALID,0,VALID,99.061,VALID,0,VALID,24.5814,VALID,8,VALID,0.505469,
2010-06-25, 00:02:04,VALID,1002.91,VALID,0,VALID,99.1983,VALID,0,VALID,24.4998,VALID,8,VALID,0.344141,
2010-06-25, 00:03:04,VALID,1002.91,VALID,0,VALID,99.3128,VALID,0,VALID,24.4609,VALID,8,VALID,0.251563,
2010-06-25, 00:04:04,VALID,1002.9,VALID,0,VALID,99.4119,VALID,0,VALID,24.4628,VALID,8,VALID,0.383984,
2010-06-25, 00:05:04,VALID,1002.91,VALID,0,VALID,99.5035,VALID,0,VALID,24.4414,VALID,8,VALID,0.336328,
2010-06-25, 00:06:04,VALID,1002.9,VALID,0,VALID,99.534,VALID,0,VALID,24.4433,VALID,8,VALID,0.335156,
2010-06-25, 00:07:04,VALID,1002.91,VALID,0,VALID,99.5874,VALID,0,VALID,24.4025,VALID,8,VALID,0.323438,
2010-06-25, 00:08:04,VALID,1002.91,VALID,0,VALID,99.6332,VALID,0,VALID,24.383,VALID,8,VALID,0.448438,
2010-06-25, 00:09:04,VALID,1002.88,VALID,0,VALID,99.7018,VALID,0,VALID,24.383,VALID,8,VALID,0.397656,
2010-06-25, 00:10:04,VALID,1002.88,VALID,0,VALID,99.7095,VALID,0,VALID,24.3636,VALID,17,VALID,0.372266,
2010-06-25, 00:11:04,VALID,1002.85,VALID,0,VALID,99.74,VALID,0,VALID,24.4025,VALID,18,VALID,0.375,
2010-06-25, 00:12:04,VALID,1002.84,VALID,0,VALID,99.7781,VALID,0,VALID,24.4025,VALID,20,VALID,0.605078,
2010-06-25, 00:13:04,VALID,1002.82,VALID,0,VALID,99.7476,VALID,0,VALID,24.4238,VALID,21,VALID,0.0289063,
2010-06-25, 00:14:04,VALID,1002.84,VALID,0,VALID,99.7705,VALID,0,VALID,24.4433,VALID,25,VALID,0.322266,
2010-06-25, 00:15:04,VALID,1002.88,VALID,0,VALID,99.7171,VALID,0,VALID,24.4433,VALID,26,VALID,0.0121094,
2010-06-25, 00:16:04,VALID,1002.89,VALID,0,VALID,99.679,VALID,0,VALID,24.4822,VALID,26,VALID,0.175391,
2010-06-25, 00:17:04,VALID,1002.86,VALID,0,VALID,99.6484,VALID,0,VALID,24.4822,VALID,26,VALID,0.136328,
2010-06-25, 00:18:04,VALID,1002.9,VALID,0,VALID,99.6179,VALID,0,VALID,24.4998,VALID,26,VALID,0.078125,
2010-06-25, 00:19:04,VALID,1002.9,VALID,0,VALID,99.595,VALID,0,VALID,24.5406,VALID,26,VALID,0.539063,
2010-06-25, 00:20:04,VALID,1002.93,VALID,0,VALID,99.4806,VALID,0,VALID,24.5406,VALID,26,VALID,0.271484,
2010-06-25, 00:21:04,VALID,1002.92,VALID,0,VALID,99.4348,VALID,0,VALID,24.5388,VALID,26,VALID,0.605469,
2010-06-25, 00:22:04,VALID,1002.96,VALID,0,VALID,99.3738,VALID,0,VALID,24.5796,VALID,26,VALID,0.451172,
2010-06-25, 00:23:04,VALID,1002.96,VALID,0,VALID,99.2441,VALID,0,VALID,24.599,VALID,26,VALID,0.432031,
2010-06-25, 00:24:04,VALID,1002.96,VALID,0,VALID,99.1602,VALID,0,VALID,24.5777,VALID,26,VALID,0.439844,
2010-06-25, 00:25:04,VALID,1002.97,VALID,0,VALID,99.0915,VALID,0,VALID,24.6185,VALID,26,VALID,0.327344,
2010-06-25, 00:26:04,VALID,1002.94,VALID,0,VALID,99.0305,VALID,0,VALID,24.599,VALID,29,VALID,0.392188,
2010-06-25, 00:27:04,VALID,1002.98,VALID,0,VALID,98.9847,VALID,0,VALID,24.638,VALID,29,VALID,0.482031,
2010-06-25, 00:28:04,VALID,1002.97,VALID,0,VALID,98.8398,VALID,0,VALID,24.6769,VALID,54,VALID,0.312891,
2010-06-25, 00:29:04,VALID,1002.97,VALID,0,VALID,98.6567,VALID,0,VALID,24.6769,VALID,54,VALID,0.0234375,
2010-06-25, 00:30:04,VALID,1002.97,VALID,0,VALID,98.527,VALID,0,VALID,24.6769,VALID,69,VALID,0.392969,
2010-06-25, 00:31:04,VALID,1002.94,VALID,0,VALID,98.4888,VALID,0,VALID,24.675,VALID,54,VALID,0.381641,
2010-06-25, 00:32:04,VALID,1002.91,VALID,0,VALID,98.4736,VALID,0,VALID,24.6945,VALID,40,VALID,0.404297,
2010-06-25, 00:33:04,VALID,1002.89,VALID,0,VALID,98.3363,VALID,0,VALID,24.714,VALID,40,VALID,0.0804688,
2010-06-25, 00:34:04,VALID,1002.89,VALID,0,VALID,98.2752,VALID,0,VALID,24.7548,VALID,32,VALID,0.346094,
2010-06-25, 00:35:04,VALID,1002.92,VALID,0,VALID,98.1837,VALID,0,VALID,24.7937,VALID,31,VALID,0.160156,
2010-06-25, 00:36:04,VALID,1002.88,VALID,0,VALID,98.0769,VALID,0,VALID,24.7724,VALID,31,VALID,0.458984,
2010-06-25, 00:37:04,VALID,1002.89,VALID,0,VALID,98.1684,VALID,0,VALID,24.7529,VALID,31,VALID,0.244922,
2010-06-25, 00:38:04,VALID,1002.91,VALID,0,VALID,98.2142,VALID,0,VALID,24.7529,VALID,31,VALID,0.254297,
2010-06-25, 00:39:04,VALID,1002.93,VALID,0,VALID,98.3439,VALID,0,VALID,24.7335,VALID,31,VALID,0.221484,
2010-06-25, 00:40:04,VALID,1002.96,VALID,0,VALID,98.466,VALID,0,VALID,24.6945,VALID,15,VALID,0.472656,
2010-06-25, 00:41:04,VALID,1002.96,VALID,0,VALID,98.527,VALID,0,VALID,24.675,VALID,15,VALID,0.00195313,
2010-06-25, 00:42:04,VALID,1002.98,VALID,0,VALID,98.5804,VALID,0,VALID,24.6964,VALID,15,VALID,0.01875,
2010-06-25, 00:43:04,VALID,1002.97,VALID,0,VALID,98.6109,VALID,0,VALID,24.6769,VALID,15,VALID,0,
2010-06-25, 00:44:04,VALID,1002.99,VALID,0,VALID,98.6948,VALID,0,VALID,24.6361,VALID,15,VALID,0.171875,
2010-06-25, 00:45:04,VALID,1002.99,VALID,0,VALID,98.8245,VALID,0,VALID,24.6166,VALID,15,VALID,0.00664063,
2010-06-25, 00:46:04,VALID,1003.01,VALID,0,VALID,98.8779,VALID,0,VALID,24.6185,VALID,15,VALID,0,
2010-06-25, 00:47:04,VALID,1002.99,VALID,0,VALID,98.9237,VALID,0,VALID,24.599,VALID,15,VALID,0,
2010-06-25, 00:48:04,VALID,1003.01,VALID,0,VALID,98.9389,VALID,0,VALID,24.5388,VALID,15,VALID,0,
2010-06-25, 00:49:04,VALID,1003.06,VALID,0,VALID,98.9389,VALID,0,VALID,24.5193,VALID,15,VALID,0,
2010-06-25, 00:50:04,VALID,1003.04,VALID,0,VALID,98.9618,VALID,0,VALID,24.4998,VALID,15,VALID,0,
2010-06-25, 00:51:04,VALID,1003.04,VALID,0,VALID,98.9618,VALID,0,VALID,24.4804,VALID,15,VALID,0,
2010-06-25, 00:52:04,VALID,1003.02,VALID,0,VALID,99.0305,VALID,0,VALID,24.5017,VALID,15,VALID,0,
2010-06-25, 00:53:04,VALID,1003.03,VALID,0,VALID,99.1602,VALID,0,VALID,24.4822,VALID,15,VALID,0,
2010-06-25, 00:54:04,VALID,1003.04,VALID,0,VALID,99.2441,VALID,0,VALID,24.4609,VALID,15,VALID,0,
2010-06-25, 00:55:04,VALID,1003.04,VALID,0,VALID,99.3738,VALID,0,VALID,24.4822,VALID,15,VALID,0,
2010-06-25, 00:56:04,VALID,1003.03,VALID,0,VALID,99.4806,VALID,0,VALID,24.4804,VALID,15,VALID,0,
2010-06-25, 00:57:04,VALID,1003.04,VALID,0,VALID,99.5569,VALID,0,VALID,24.4804,VALID,15,VALID,0,
2010-06-25, 00:58:04,VALID,1003.03,VALID,0,VALID,99.5721,VALID,0,VALID,24.4804,VALID,15,VALID,0,
2010-06-25, 00:59:04,VALID,1003.01,VALID,0,VALID,99.6561,VALID,0,VALID,24.5388,VALID,15,VALID,0,
2010-06-25, 01:00:04,VALID,1002.99,VALID,0,VALID,99.6179,VALID,0,VALID,24.5582,VALID,15,VALID,0,
2010-06-25, 01:01:04,VALID,1003,VALID,0,VALID,99.5569,VALID,0,VALID,24.5777,VALID,15,VALID,0,
2010-06-25, 01:02:04,VALID,1002.98,VALID,0,VALID,99.534,VALID,0,VALID,24.638,VALID,15,VALID,0,
2010-06-25, 01:03:04,VALID,1002.96,VALID,0,VALID,99.4882,VALID,0,VALID,24.6556,VALID,15,VALID,0.360156,
2010-06-25, 01:04:04,VALID,1002.91,VALID,0,VALID,99.3128,VALID,0,VALID,24.6964,VALID,15,VALID,0.21875,
2010-06-25, 01:05:04,VALID,1002.88,VALID,0,VALID,99.0992,VALID,0,VALID,24.675,VALID,14,VALID,0.471484,
2010-06-25, 01:06:04,VALID,1002.9,VALID,0,VALID,99.0305,VALID,0,VALID,24.675,VALID,13,VALID,0.342578,
2010-06-25, 01:07:04,VALID,1002.92,VALID,0,VALID,99.061,VALID,0,VALID,24.6556,VALID,13,VALID,0.457812,
2010-06-25, 01:08:04,VALID,1002.92,VALID,0,VALID,99.1144,VALID,0,VALID,24.6769,VALID,13,VALID,0.410156,
2010-06-25, 01:09:04,VALID,1002.96,VALID,0,VALID,99.0915,VALID,0,VALID,24.6361,VALID,13,VALID,0.372656,
2010-06-25, 01:10:04,VALID,1002.94,VALID,0,VALID,99.0839,VALID,0,VALID,24.6185,VALID,13,VALID,0.0535156,
2010-06-25, 01:11:04,VALID,1003,VALID,0,VALID,99.0992,VALID,0,VALID,24.5369,VALID,13,VALID,0.0980469,
2010-06-25, 01:12:04,VALID,1003.02,VALID,0,VALID,99.1449,VALID,0,VALID,24.5193,VALID,31,VALID,0,
2010-06-25, 01:13:04,VALID,1003.03,VALID,0,VALID,99.2441,VALID,0,VALID,24.4609,VALID,50,VALID,0,
2010-06-25, 01:14:04,VALID,1003.03,VALID,0,VALID,99.3128,VALID,0,VALID,24.422,VALID,52,VALID,0,
2010-06-25, 01:15:04,VALID,1003.03,VALID,0,VALID,99.3967,VALID,0,VALID,24.383,VALID,52,VALID,0,
2010-06-25, 01:16:04,VALID,1003.03,VALID,0,VALID,99.5111,VALID,0,VALID,24.3636,VALID,52,VALID,0,
2010-06-25, 01:17:04,VALID,1003.04,VALID,0,VALID,99.6255,VALID,0,VALID,24.3441,VALID,52,VALID,0,
2010-06-25, 01:18:04,VALID,1003.02,VALID,0,VALID,99.6713,VALID,0,VALID,24.3265,VALID,52,VALID,0,
2010-06-25, 01:19:04,VALID,1002.95,VALID,0,VALID,99.7247,VALID,0,VALID,24.2857,VALID,52,VALID,0,
2010-06-25, 01:20:04,VALID,1002.95,VALID,0,VALID,99.7324,VALID,0,VALID,24.2681,VALID,52,VALID,0,
2010-06-25, 01:21:04,VALID,1002.88,VALID,0,VALID,99.7934,VALID,0,VALID,24.206,VALID,52,VALID,0,
2010-06-25, 01:22:04,VALID,1002.88,VALID,0,VALID,99.8697,VALID,0,VALID,24.2468,VALID,52,VALID,0,
2010-06-25, 01:23:04,VALID,1002.86,VALID,0,VALID,99.9536,VALID,0,VALID,24.2468,VALID,52,VALID,0,
2010-06-25, 01:24:04,VALID,1002.81,VALID,0,VALID,99.9841,VALID,0,VALID,24.2662,VALID,52,VALID,0,
2010-06-25, 01:25:04,VALID,1002.79,VALID,0,VALID,100.015,VALID,0,VALID,24.2662,VALID,52,VALID,0,
2010-06-25, 01:26:04,VALID,1002.75,VALID,0,VALID,100.015,VALID,0,VALID,24.2662,VALID,12,VALID,0,
2010-06-25, 01:27:04,VALID,1002.7,VALID,0,VALID,100.038,VALID,0,VALID,24.2468,VALID,360,VALID,0.576563,
2010-06-25, 01:28:04,VALID,1002.7,VALID,0,VALID,100.091,VALID,0.100563,VALID,24.2468,VALID,356,VALID,0.417969,
2010-06-25, 01:29:04,VALID,1002.69,VALID,0,VALID,100.121,VALID,0,VALID,24.206,VALID,355,VALID,0.328906,
2010-06-25, 01:30:04,VALID,1002.71,VALID,0,VALID,100.152,VALID,0,VALID,24.2078,VALID,355,VALID,0.394141,
2010-06-25, 01:31:04,VALID,1002.74,VALID,0,VALID,100.175,VALID,0,VALID,24.2078,VALID,355,VALID,0.258984,
2010-06-25, 01:32:04,VALID,1002.78,VALID,0,VALID,100.205,VALID,0,VALID,24.2078,VALID,355,VALID,0.0644531,
2010-06-25, 01:33:04,VALID,1002.82,VALID,0,VALID,100.205,VALID,0,VALID,24.2078,VALID,355,VALID,0,
2010-06-25, 01:34:04,VALID,1002.86,VALID,0,VALID,100.236,VALID,0,VALID,24.2486,VALID,355,VALID,0,
2010-06-25, 01:35:04,VALID,1002.83,VALID,0,VALID,100.266,VALID,0,VALID,24.2468,VALID,355,VALID,0,
2010-06-25, 01:36:04,VALID,1002.78,VALID,0,VALID,100.282,VALID,0,VALID,24.2662,VALID,355,VALID,0,
2010-06-25, 01:37:04,VALID,1002.74,VALID,0,VALID,100.32,VALID,0,VALID,24.2644,VALID,355,VALID,0,
2010-06-25, 01:38:04,VALID,1002.69,VALID,0,VALID,100.343,VALID,0,VALID,24.2857,VALID,355,VALID,0,
2010-06-25, 01:39:04,VALID,1002.68,VALID,0,VALID,100.366,VALID,0,VALID,24.2839,VALID,355,VALID,0,
2010-06-25, 01:40:04,VALID,1002.61,VALID,0,VALID,100.343,VALID,0,VALID,24.3052,VALID,355,VALID,0,
2010-06-25, 01:41:04,VALID,1002.59,VALID,0,VALID,100.366,VALID,0,VALID,24.3052,VALID,355,VALID,0,
2010-06-25, 01:42:04,VALID,1002.56,VALID,0,VALID,100.358,VALID,0,VALID,24.3052,VALID,355,VALID,0,
2010-06-25, 01:43:04,VALID,1002.58,VALID,0,VALID,100.396,VALID,0,VALID,24.3246,VALID,355,VALID,0,
2010-06-25, 01:44:04,VALID,1002.61,VALID,0,VALID,100.396,VALID,0,VALID,24.3246,VALID,355,VALID,0.189453,
2010-06-25, 01:45:04,VALID,1002.61,VALID,0,VALID,100.388,VALID,0,VALID,24.3246,VALID,356,VALID,0.315625,
2010-06-25, 01:46:04,VALID,1002.63,VALID,0,VALID,100.381,VALID,0,VALID,24.3849,VALID,360,VALID,0.0414063,
2010-06-25, 01:47:04,VALID,1002.62,VALID,0,VALID,100.381,VALID,0,VALID,24.4043,VALID,360,VALID,0,
2010-06-25, 01:48:04,VALID,1002.63,VALID,0,VALID,100.381,VALID,0,VALID,24.383,VALID,360,VALID,0,
2010-06-25, 01:49:04,VALID,1002.63,VALID,0,VALID,100.388,VALID,0,VALID,24.4025,VALID,360,VALID,0,
2010-06-25, 01:50:04,VALID,1002.61,VALID,0,VALID,100.396,VALID,0,VALID,24.4238,VALID,360,VALID,0,
2010-06-25, 01:51:04,VALID,1002.59,VALID,0,VALID,100.411,VALID,0,VALID,24.4238,VALID,360,VALID,0,
2010-06-25, 01:52:04,VALID,1002.56,VALID,0,VALID,100.411,VALID,0,VALID,24.4451,VALID,9,VALID,0,
2010-06-25, 01:53:04,VALID,1002.54,VALID,0,VALID,100.411,VALID,0,VALID,24.422,VALID,9,VALID,0,
2010-06-25, 01:54:04,VALID,1002.49,VALID,0,VALID,100.373,VALID,0,VALID,24.4414,VALID,9,VALID,0,
2010-06-25, 01:55:04,VALID,1002.42,VALID,0,VALID,100.388,VALID,0,VALID,24.4414,VALID,9,VALID,0,
2010-06-25, 01:56:04,VALID,1002.39,VALID,0,VALID,100.388,VALID,0,VALID,24.4609,VALID,9,VALID,0,
2010-06-25, 01:57:04,VALID,1002.31,VALID,0,VALID,100.388,VALID,0,VALID,24.4609,VALID,345,VALID,0,
2010-06-25, 01:58:04,VALID,1002.22,VALID,0,VALID,100.366,VALID,0,VALID,24.4804,VALID,347,VALID,0,
2010-06-25, 01:59:04,VALID,1002.15,VALID,0,VALID,100.373,VALID,0,VALID,24.5193,VALID,354,VALID,0,
2010-06-25, 02:00:04,VALID,1002.1,VALID,0,VALID,100.404,VALID,0,VALID,24.5193,VALID,351,VALID,0,
2010-06-25, 02:01:04,VALID,1002.06,VALID,0,VALID,100.396,VALID,0,VALID,24.5601,VALID,353,VALID,0,
2010-06-25, 02:02:04,VALID,1002.07,VALID,0,VALID,100.373,VALID,0,VALID,24.599,VALID,360,VALID,0,
2010-06-25, 02:03:04,VALID,1002.08,VALID,0,VALID,100.396,VALID,0,VALID,24.675,VALID,14,VALID,0.811328,
2010-06-25, 02:04:04,VALID,1002.1,VALID,0,VALID,100.396,VALID,0,VALID,24.8113,VALID,352,VALID,0.539453,
2010-06-25, 02:05:04,VALID,1002.11,VALID,0,VALID,100.19,VALID,0,VALID,24.969,VALID,18,VALID,0.644922,
2010-06-25, 02:06:04,VALID,1002.14,VALID,0,VALID,99.6103,VALID,0,VALID,25.1248,VALID,12,VALID,0.471484,
2010-06-25, 02:07:04,VALID,1002.18,VALID,0,VALID,98.5956,VALID,0,VALID,25.2202,VALID,10,VALID,0.592188,
2010-06-25, 02:08:04,VALID,1002.16,VALID,0,VALID,97.6039,VALID,0,VALID,25.3565,VALID,7,VALID,0.0191406,
2010-06-25, 02:09:04,VALID,1002.15,VALID,0,VALID,90.3412,VALID,0,VALID,25.4558,VALID,7,VALID,0.342578,
2010-06-25, 02:10:04,VALID,1002.16,VALID,0,VALID,89.3647,VALID,0,VALID,25.5142,VALID,7,VALID,0.178906,
2010-06-25, 02:11:04,VALID,1002.21,VALID,0,VALID,89.4105,VALID,0,VALID,25.5318,VALID,61,VALID,0.260547,
2010-06-25, 02:12:04,VALID,1002.18,VALID,0,VALID,89.6241,VALID,0,VALID,25.5707,VALID,74,VALID,0,
2010-06-25, 02:13:04,VALID,1002.19,VALID,0,VALID,89.6012,VALID,0,VALID,25.5513,VALID,74,VALID,0.560938,
2010-06-25, 02:14:04,VALID,1002.17,VALID,0,VALID,90.1276,VALID,0,VALID,25.4928,VALID,74,VALID,0.194531,
2010-06-25, 02:15:04,VALID,1002.18,VALID,0,VALID,91.4703,VALID,0,VALID,25.4948,VALID,74,VALID,0,
2010-06-25, 02:16:04,VALID,1002.13,VALID,0,VALID,94.5523,VALID,0,VALID,25.4539,VALID,74,VALID,0,
2010-06-25, 02:17:04,VALID,1002.12,VALID,0,VALID,91.6229,VALID,0,VALID,25.376,VALID,74,VALID,0,
2010-06-25, 02:18:04,VALID,1002.13,VALID,0,VALID,92.0882,VALID,0,VALID,25.3565,VALID,74,VALID,0,
2010-06-25, 02:19:04,VALID,1002.17,VALID,0,VALID,94.1404,VALID,0,VALID,25.337,VALID,74,VALID,0,
2010-06-25, 02:20:04,VALID,1002.2,VALID,0,VALID,95.8721,VALID,0,VALID,25.339,VALID,74,VALID,0,
2010-06-25, 02:21:04,VALID,1002.22,VALID,0,VALID,96.2383,VALID,0,VALID,25.2786,VALID,74,VALID,0,
2010-06-25, 02:22:04,VALID,1002.26,VALID,0,VALID,97.253,VALID,0,VALID,25.2806,VALID,74,VALID,0,
2010-06-25, 02:23:04,VALID,1002.26,VALID,0,VALID,97.3216,VALID,0,VALID,25.2221,VALID,74,VALID,0,
2010-06-25, 02:24:04,VALID,1002.26,VALID,0,VALID,97.7717,VALID,0,VALID,25.1618,VALID,74,VALID,0,
2010-06-25, 02:25:04,VALID,1002.24,VALID,0,VALID,98.2142,VALID,0,VALID,25.1832,VALID,74,VALID,0,
2010-06-25, 02:26:04,VALID,1002.26,VALID,0,VALID,98.3973,VALID,0,VALID,25.1442,VALID,74,VALID,0,
2010-06-25, 02:27:04,VALID,1002.26,VALID,0,VALID,98.5423,VALID,0,VALID,25.0839,VALID,74,VALID,0,
2010-06-25, 02:28:04,VALID,1002.27,VALID,0,VALID,98.6643,VALID,0,VALID,25.1053,VALID,74,VALID,0,
2010-06-25, 02:29:04,VALID,1002.28,VALID,0,VALID,98.7711,VALID,0,VALID,25.0858,VALID,74,VALID,0,
2010-06-25, 02:30:04,VALID,1002.32,VALID,0,VALID,98.9389,VALID,0,VALID,25.045,VALID,74,VALID,0,
2010-06-25, 02:31:04,VALID,1002.35,VALID,0,VALID,99.0992,VALID,0,VALID,25.0469,VALID,74,VALID,0,
2010-06-25, 02:32:04,VALID,1002.36,VALID,0,VALID,99.206,VALID,0,VALID,25.0079,VALID,74,VALID,0,
2010-06-25, 02:33:04,VALID,1002.38,VALID,0,VALID,99.3128,VALID,0,VALID,24.9885,VALID,74,VALID,0,
2010-06-25, 02:34:04,VALID,1002.36,VALID,0,VALID,99.3814,VALID,0,VALID,24.9476,VALID,74,VALID,0,
2010-06-25, 02:35:04,VALID,1002.36,VALID,0,VALID,99.4348,VALID,0,VALID,24.9282,VALID,74,VALID,0,
2010-06-25, 02:36:04,VALID,1002.31,VALID,0,VALID,99.473,VALID,0,VALID,24.9282,VALID,74,VALID,0,
2010-06-25, 02:37:04,VALID,1002.32,VALID,0,VALID,99.5111,VALID,0,VALID,24.9087,VALID,74,VALID,0,
2010-06-25, 02:38:04,VALID,1002.3,VALID,0,VALID,99.5416,VALID,0,VALID,24.9106,VALID,74,VALID,0,
2010-06-25, 02:39:04,VALID,1002.31,VALID,0,VALID,99.5569,VALID,0,VALID,24.9106,VALID,74,VALID,0,
2010-06-25, 02:40:04,VALID,1002.29,VALID,0,VALID,99.5569,VALID,0,VALID,24.9087,VALID,74,VALID,0,
2010-06-25, 02:41:04,VALID,1002.31,VALID,0,VALID,99.5721,VALID,0,VALID,24.8892,VALID,74,VALID,0,
2010-06-25, 02:42:04,VALID,1002.28,VALID,0,VALID,99.5721,VALID,0,VALID,24.8892,VALID,74,VALID,0,
2010-06-25, 02:43:04,VALID,1002.25,VALID,0,VALID,99.5874,VALID,0,VALID,24.93,VALID,74,VALID,0,
2010-06-25, 02:44:04,VALID,1002.25,VALID,0,VALID,99.6103,VALID,0,VALID,24.9087,VALID,74,VALID,0,
2010-06-25, 02:45:04,VALID,1002.24,VALID,0,VALID,99.6255,VALID,0,VALID,24.9106,VALID,74,VALID,0,
2010-06-25, 02:46:04,VALID,1002.26,VALID,0,VALID,99.6332,VALID,0,VALID,24.9087,VALID,70,VALID,0,
2010-06-25, 02:47:04,VALID,1002.28,VALID,0,VALID,99.6179,VALID,0,VALID,24.9106,VALID,70,VALID,0,
2010-06-25, 02:48:04,VALID,1002.3,VALID,0,VALID,99.6103,VALID,0,VALID,24.93,VALID,55,VALID,0,
2010-06-25, 02:49:04,VALID,1002.33,VALID,0,VALID,99.6027,VALID,0,VALID,24.9087,VALID,55,VALID,0,
2010-06-25, 02:50:04,VALID,1002.36,VALID,0,VALID,99.6027,VALID,0,VALID,24.9282,VALID,55,VALID,0,
2010-06-25, 02:51:04,VALID,1002.37,VALID,0,VALID,99.6027,VALID,0,VALID,24.9282,VALID,55,VALID,0,
2010-06-25, 02:52:04,VALID,1002.4,VALID,0,VALID,99.6103,VALID,0,VALID,24.969,VALID,56,VALID,0,
2010-06-25, 02:53:04,VALID,1002.37,VALID,0,VALID,99.6103,VALID,0,VALID,24.9495,VALID,56,VALID,0,
2010-06-25, 02:54:04,VALID,1002.43,VALID,0,VALID,99.6484,VALID,0,VALID,24.9885,VALID,107,VALID,0,
2010-06-25, 02:55:04,VALID,1002.44,VALID,0,VALID,99.6027,VALID,0,VALID,25.006,VALID,105,VALID,0.0539063,
2010-06-25, 02:56:04,VALID,1002.46,VALID,0,VALID,99.3662,VALID,0,VALID,25.0663,VALID,109,VALID,0.862891,
2010-06-25, 02:57:04,VALID,1002.45,VALID,0,VALID,99.0915,VALID,0,VALID,25.1229,VALID,108,VALID,0.483594,
2010-06-25, 02:58:04,VALID,1002.42,VALID,0,VALID,98.8474,VALID,0,VALID,25.2027,VALID,108,VALID,0.342187,
2010-06-25, 02:59:04,VALID,1002.39,VALID,0,VALID,98.6491,VALID,0,VALID,25.2221,VALID,108,VALID,0.136719,
2010-06-25, 03:00:04,VALID,1002.41,VALID,0,VALID,98.6491,VALID,0,VALID,25.2202,VALID,108,VALID,0,
2010-06-25, 03:01:04,VALID,1002.35,VALID,0,VALID,98.5728,VALID,0,VALID,25.2007,VALID,108,VALID,0,
2010-06-25, 03:02:04,VALID,1002.37,VALID,0,VALID,98.5194,VALID,0,VALID,25.2007,VALID,108,VALID,0,
2010-06-25, 03:03:04,VALID,1002.35,VALID,0,VALID,98.588,VALID,0,VALID,25.2007,VALID,108,VALID,0,
2010-06-25, 03:04:04,VALID,1002.33,VALID,0,VALID,98.6491,VALID,0,VALID,25.2416,VALID,108,VALID,0.226172,
2010-06-25, 03:05:04,VALID,1002.34,VALID,0,VALID,98.6491,VALID,0,VALID,25.1813,VALID,108,VALID,0.135156,
2010-06-25, 03:06:04,VALID,1002.26,VALID,0,VALID,98.6491,VALID,0,VALID,25.1618,VALID,108,VALID,0,
2010-06-25, 03:07:04,VALID,1002.27,VALID,0,VALID,98.6185,VALID,0,VALID,25.1637,VALID,108,VALID,0,
2010-06-25, 03:08:04,VALID,1002.26,VALID,0,VALID,98.5499,VALID,0,VALID,25.1637,VALID,108,VALID,0,
2010-06-25, 03:09:04,VALID,1002.27,VALID,0,VALID,98.5194,VALID,0,VALID,25.1248,VALID,108,VALID,0,
2010-06-25, 03:10:04,VALID,1002.29,VALID,0,VALID,98.5651,VALID,0,VALID,25.0839,VALID,108,VALID,0,
2010-06-25, 03:11:04,VALID,1002.31,VALID,0,VALID,98.7253,VALID,0,VALID,25.0839,VALID,108,VALID,0.249219,
2010-06-25, 03:12:04,VALID,1002.3,VALID,0,VALID,98.8627,VALID,0,VALID,25.0663,VALID,108,VALID,0.430078,
2010-06-25, 03:13:04,VALID,1002.3,VALID,0,VALID,99.0229,VALID,0,VALID,25.0663,VALID,108,VALID,0.536719,
2010-06-25, 03:14:04,VALID,1002.28,VALID,0,VALID,99.1983,VALID,0,VALID,25.006,VALID,108,VALID,0.435937,
2010-06-25, 03:15:04,VALID,1002.25,VALID,0,VALID,99.3662,VALID,0,VALID,24.969,VALID,108,VALID,0,
2010-06-25, 03:16:04,VALID,1002.26,VALID,0,VALID,99.5035,VALID,0,VALID,24.9495,VALID,108,VALID,0,
2010-06-25, 03:17:04,VALID,1002.3,VALID,0,VALID,99.6027,VALID,0,VALID,24.8892,VALID,108,VALID,0,
2010-06-25, 03:18:04,VALID,1002.29,VALID,0,VALID,99.6866,VALID,0,VALID,24.8911,VALID,108,VALID,0,
2010-06-25, 03:19:04,VALID,1002.29,VALID,0,VALID,99.7858,VALID,0,VALID,24.8503,VALID,108,VALID,0,
2010-06-25, 03:20:04,VALID,1002.3,VALID,0,VALID,99.8697,VALID,0,VALID,24.8308,VALID,108,VALID,0,
2010-06-25, 03:21:04,VALID,1002.3,VALID,0,VALID,99.9765,VALID,0,VALID,24.8308,VALID,16,VALID,0,
2010-06-25, 03:22:04,VALID,1002.35,VALID,0,VALID,100.06,VALID,0,VALID,24.8308,VALID,16,VALID,0,
2010-06-25, 03:23:04,VALID,1002.3,VALID,0,VALID,100.129,VALID,0,VALID,24.8113,VALID,16,VALID,0,
2010-06-25, 03:24:04,VALID,1002.29,VALID,0,VALID,100.152,VALID,0,VALID,24.8327,VALID,16,VALID,0,
2010-06-25, 03:25:04,VALID,1002.32,VALID,0,VALID,100.213,VALID,0,VALID,24.8327,VALID,16,VALID,0,
2010-06-25, 03:26:04,VALID,1002.32,VALID,0,VALID,100.251,VALID,0,VALID,24.8327,VALID,16,VALID,0,
2010-06-25, 03:27:04,VALID,1002.34,VALID,0,VALID,100.274,VALID,0,VALID,24.8132,VALID,16,VALID,0,
2010-06-25, 03:28:04,VALID,1002.34,VALID,0,VALID,100.297,VALID,0,VALID,24.7919,VALID,16,VALID,0,
2010-06-25, 03:29:04,VALID,1002.34,VALID,0,VALID,100.327,VALID,0,VALID,24.7937,VALID,16,VALID,0,
2010-06-25, 03:30:04,VALID,1002.31,VALID,0,VALID,100.312,VALID,0,VALID,24.7529,VALID,356,VALID,0,
2010-06-25, 03:31:04,VALID,1002.29,VALID,0,VALID,100.32,VALID,0,VALID,24.7724,VALID,356,VALID,0,
2010-06-25, 03:32:04,VALID,1002.36,VALID,0,VALID,100.32,VALID,0,VALID,24.7919,VALID,7,VALID,0,
2010-06-25, 03:33:04,VALID,1002.36,VALID,0,VALID,100.366,VALID,0,VALID,24.8113,VALID,24,VALID,0.108203,
2010-06-25, 03:34:04,VALID,1002.35,VALID,0,VALID,100.381,VALID,0,VALID,24.8308,VALID,15,VALID,0.221484,
2010-06-25, 03:35:04,VALID,1002.36,VALID,0,VALID,100.404,VALID,0,VALID,24.8716,VALID,106,VALID,0.265625,
2010-06-25, 03:36:04,VALID,1002.32,VALID,0,VALID,100.404,VALID,0,VALID,24.8892,VALID,83,VALID,0,
2010-06-25, 03:37:04,VALID,1002.31,VALID,0,VALID,100.373,VALID,0,VALID,24.9087,VALID,83,VALID,0,
2010-06-25, 03:38:04,VALID,1002.34,VALID,0,VALID,100.35,VALID,0,VALID,24.9495,VALID,81,VALID,0,
2010-06-25, 03:39:04,VALID,1002.35,VALID,0,VALID,100.297,VALID,0,VALID,24.9476,VALID,87,VALID,0,
2010-06-25, 03:40:04,VALID,1002.31,VALID,0,VALID,100.213,VALID,0,VALID,25.0079,VALID,89,VALID,0,
2010-06-25, 03:41:04,VALID,1002.31,VALID,0,VALID,100.083,VALID,0,VALID,25.0469,VALID,89,VALID,0,
2010-06-25, 03:42:04,VALID,1002.26,VALID,0,VALID,99.9231,VALID,0,VALID,25.0663,VALID,90,VALID,0,
2010-06-25, 03:43:04,VALID,1002.27,VALID,0,VALID,99.801,VALID,0,VALID,25.1248,VALID,55,VALID,0,
2010-06-25, 03:44:04,VALID,1002.27,VALID,0,VALID,99.6484,VALID,0,VALID,25.1229,VALID,42,VALID,0,
2010-06-25, 03:45:04,VALID,1002.26,VALID,0,VALID,99.5264,VALID,0,VALID,25.1442,VALID,73,VALID,0,
2010-06-25, 03:46:04,VALID,1002.26,VALID,0,VALID,99.4272,VALID,0,VALID,25.1637,VALID,80,VALID,0,
2010-06-25, 03:47:04,VALID,1002.27,VALID,0,VALID,99.3585,VALID,0,VALID,25.1618,VALID,79,VALID,0,
2010-06-25, 03:48:04,VALID,1002.27,VALID,0,VALID,99.3128,VALID,0,VALID,25.1618,VALID,80,VALID,0,
2010-06-25, 03:49:04,VALID,1002.29,VALID,0,VALID,99.2822,VALID,0,VALID,25.1637,VALID,80,VALID,0,
2010-06-25, 03:50:04,VALID,1002.33,VALID,0,VALID,99.2822,VALID,0,VALID,25.1229,VALID,80,VALID,0,
2010-06-25, 03:51:04,VALID,1002.34,VALID,0,VALID,99.3814,VALID,0,VALID,25.1248,VALID,89,VALID,0,
2010-06-25, 03:52:04,VALID,1002.33,VALID,0,VALID,99.4425,VALID,0,VALID,25.1248,VALID,99,VALID,0,
2010-06-25, 03:53:04,VALID,1002.36,VALID,0,VALID,99.5264,VALID,0,VALID,25.1053,VALID,99,VALID,0,
2010-06-25, 03:54:04,VALID,1002.33,VALID,0,VALID,99.5798,VALID,0,VALID,25.1053,VALID,101,VALID,0,
2010-06-25, 03:55:04,VALID,1002.3,VALID,0,VALID,99.679,VALID,0,VALID,25.1053,VALID,101,VALID,0,